This is the latest recevied weather packets stored in our database for station/object KC3AWA. If no packets are shown the sender has not sent any weather packets the latest 10 day(s).
| Time | Temp. | Humidity | Pressure | Rain* | Wind** | Luminosity | Snow |
|---|---|---|---|---|---|---|---|
| 1777469530 | 11.67° C | 96% | 1011.3 hPa | 0 mm | - | 52 W/m² | - |
| 1777469225 | 11.67° C | 96% | 1010.8 hPa | 0 mm | - | 47 W/m² | - |
| 1777468925 | 11.67° C | 96% | 1010.9 hPa | 0 mm | - | 40 W/m² | - |
| 1777468621 | 11.67° C | 95% | 1010.5 hPa | 1.78 mm | - | 53 W/m² | - |
| 1777468318 | 11.67° C | 95% | 1010.5 hPa | 1.78 mm | - | 46 W/m² | - |
| 1777468014 | 11.67° C | 95% | 1010.7 hPa | 0 mm | - | 38 W/m² | - |
| 1777467710 | 11.67° C | 95% | 1011.3 hPa | 0 mm | - | 41 W/m² | - |
| 1777467406 | 11.67° C | 95% | 1011.4 hPa | 0 mm | - | 41 W/m² | - |
| 1777467102 | 11.67° C | 94% | 1011.6 hPa | 0 mm | - | 32 W/m² | - |
| 1777466799 | 11.67° C | 94% | 1011.7 hPa | 0 mm | - | 34 W/m² | - |
| 1777466497 | 11.67° C | 94% | 1011.9 hPa | 0 mm | - | 35 W/m² | - |
| 1777466193 | 11.67° C | 94% | 1012 hPa | 0 mm | - | 41 W/m² | - |
| 1777465889 | 11.67° C | 94% | 1012.3 hPa | 0 mm | - | 30 W/m² | - |
| 1777465586 | 11.67° C | 94% | 1012.3 hPa | 0 mm | - | 31 W/m² | - |
| 1777465281 | 11.67° C | 95% | 1012.4 hPa | 0 mm | - | 28 W/m² | - |
| 1777464975 | 11.67° C | 95% | 1012.4 hPa | 0 mm | - | 28 W/m² | - |
| 1777464670 | 11.67° C | 95% | 1012.4 hPa | 0 mm | - | 32 W/m² | - |
| 1777464367 | 11.67° C | 95% | 1012.6 hPa | 0 mm | - | 30 W/m² | - |
| 1777464062 | 11.67° C | 95% | 1013 hPa | 0 mm | - | 28 W/m² | - |
| 1777463757 | 11.67° C | 95% | 1012.9 hPa | 0 mm | - | 38 W/m² | - |
| 1777463452 | 11.67° C | 95% | 1013.1 hPa | 0 mm | - | 31 W/m² | - |
| 1777463148 | 11.67° C | 96% | 1013.2 hPa | 0 mm | - | 37 W/m² | - |
| 1777462844 | 11.67° C | 96% | 1013 hPa | 0 mm | - | 44 W/m² | - |
| 1777462540 | 11.67° C | 96% | 1013.1 hPa | 0 mm | - | 32 W/m² | - |
| 1777462236 | 11.67° C | 96% | 1013.3 hPa | 0 mm | - | 18 W/m² | - |
* Rain latest hour (hover to see other rain measurements)
** Current wind speed in m/s (hover to see current wind gust speed)